[[{"header":{"parameterUnit":"m.s-1","parameterCategory":1,"la1":30.2991,"la2":30.254,"lo1":-89.0895,"lo2":-89.0444,"dy":0.0017,"dx":0.0017,"nx":28,"ny":28,"refTime":"2023-10-27T09:00:00:Z","depth":0,"parameterNumber":2,"parameterNumberName":"U-component_of_WINDS"},"data":[0,0,0,0,0,0,0,0,0,0,0,0,0,0,0,0,0,0,0,0,0,0,0,0,0,0,0,0,0,0,0,0,0,0,0,0,0,0,0,0,0,0,0,0,0,0,0,0,0,0,0,0,0,0,0,0,0,0,-3.6084,-3.6084,0,-3.6088,-3.6088,-3.6088,-3.6014,-3.6012,-3.601,-3.6008,-3.6016,-3.6018,-3.602,0,0,0,0,0,0,0,0,0,0,0,0,0,-3.6016,-3.6018,-3.6084,-3.6084,-3.6084,-3.6088,-3.6088,-3.6088,-3.6014,-3.6012,-3.6009,-3.6007,-3.6015,-3.6018,-3.602,0,0,0,0,0,0,0,0,0,0,0,0,0,-3.6036,-3.6018,-3.6084,-3.6047,-3.6044,-3.6088,-3.6088,-3.6088,-3.6015,-3.6012,-3.6009,-3.6006,-3.6014,-3.6017,-3.602,-3.61,0,0,-3.603,-3.6031,0,0,0,0,0,0,0,0,-3.6035,-3.6038,-3.6053,-3.605,-3.6046,-3.6047,-3.6067,-3.6093,-3.6016,-3.6026,-3.6008,-3.6005,-3.6029,-3.6031,-3.6038,-3.6101,-3.6101,-3.603,-3.6032,-3.6033,-3.6034,0,0,0,0,0,0,0,-3.6033,-3.6038,-3.6086,-3.6053,-3.6049,-3.6033,-3.6032,-3.6072,-3.6045,-3.6025,-3.602,-3.6021,-3.6027,-3.6035,-3.6038,-3.6101,-3.603,-3.6033,-3.6035,-3.6036,-3.6233,-3.6237,0,0,0,0,0,0,-3.6036,-3.6037,-3.6085,-3.6086,-3.6033,-3.6036,-3.6036,-3.605,-3.6044,-3.604,-3.6024,-3.6018,-3.6032,-3.6034,-3.6038,-3.6133,-3.6033,-3.6036,-3.6038,-3.623,-3.6234,-3.6238,0,0,0,0,0,0,-3.6035,-3.6041,-3.6085,-3.606,-3.6064,-3.6041,-3.6058,-3.6052,-3.606,-3.6043,-3.6038,-3.6037,-3.6029,-3.6033,-3.6086,-3.6132,-3.6038,-3.6041,-3.6226,-3.6231,-3.6236,-3.6323,0,0,0,0,0,0,-3.6033,-3.6041,-3.607,-3.6061,-3.6066,-3.6132,-3.606,-3.6054,-3.6066,-3.6058,-3.6054,-3.6051,-3.6027,-3.6082,-3.6089,-3.6135,-3.6043,-3.6222,-3.6228,-3.6234,-3.6316,-3.633,-3.6343,0,0,0,0,0,-3.6031,-3.6094,-3.6072,-3.6078,-3.6101,-3.6134,-3.6137,-3.6108,-3.607,-3.6099,-3.6089,-3.6051,-3.6126,-3.6088,-3.6095,-3.6143,-3.6219,-3.6227,-3.6234,-3.631,-3.6328,-3.6342,0,0,0,0,0,0,-3.6109,-3.6092,-3.6067,-3.6129,-3.6134,-3.6122,-3.6158,-3.6127,-3.6144,-3.6136,-3.61,-3.61,-3.6159,-3.6156,-3.6114,-3.6222,-3.6166,-3.6175,-3.6221,-3.6238,-3.6251,-3.625,-3.6046,0,0,0,0,0,-3.6134,-3.6161,-3.6145,-3.6201,-3.6205,-3.6182,-3.6195,-3.6172,-3.6176,-3.6178,-3.6171,-3.6178,-3.6203,-3.622,-3.6242,-3.6316,-3.6315,-3.6352,-3.6366,-3.6377,-3.6386,-3.6427,-3.6444,-3.6263,-3.6263,-3.6262,0,0,-3.6184,-3.6178,-3.6197,-3.6217,-3.6218,-3.6249,-3.6184,-3.6218,-3.6242,-3.6184,-3.6233,-3.6229,-3.6234,-3.6298,-3.6326,-3.6297,-3.6436,-3.6387,-3.6396,-3.6398,-3.6437,-3.6454,-3.6469,-3.6268,-3.6267,-3.6266,0,0,-3.6292,-3.6289,-3.6337,-3.634,-3.6343,-3.6327,-3.6339,-3.6333,-3.6328,-3.6376,-3.6335,-3.6363,-3.6406,-3.6413,-3.6422,-3.6536,-3.6503,-3.6545,-3.6615,-3.6656,-3.667,-3.6683,-3.6726,-3.6741,-3.6554,-3.6554,-3.6554,0,-3.6354,-3.6398,-3.6365,-3.6404,-3.6415,-3.6364,-3.6414,-3.6418,-3.6429,-3.6438,-3.6406,-3.6462,-3.6462,-3.6528,-3.6557,-3.6565,-3.6579,-3.6544,-3.6671,-3.6683,-3.6694,-3.6735,-3.6751,-3.6559,-3.6558,-3.6558,-3.6557,0,-3.6476,-3.6507,-3.6545,-3.6557,-3.6572,-3.6616,-3.6592,-3.6612,-3.6589,-3.6578,-3.6631,-3.6629,-3.6652,-3.6666,-3.6643,-3.673,-3.6713,-3.6676,-3.662,-3.6717,-3.6755,-3.677,-3.6566,-3.6564,-3.6563,-3.6562,0,0,-3.663,-3.6625,-3.664,-3.6646,-3.6647,-3.6671,-3.6715,-3.6736,-3.6755,-3.6765,-3.6802,-3.6842,-3.6809,-3.682,-3.6798,-3.6834,-3.6928,-3.6794,-3.6793,-3.682,-3.7026,-3.7054,-3.7072,-3.6907,-3.6909,-3.6912,-3.7026,0,-3.6736,-3.6807,-3.6781,-3.6856,-3.6886,-3.684,-3.6878,-3.6885,-3.6876,-3.6902,-3.6894,-3.6923,-3.6877,-3.6883,-3.6917,-3.6909,-3.6969,-3.6901,-3.6942,-3.6944,-3.6942,-3.7091,-3.712,-3.7228,-3.7041,-3.7043,-3.7045,0,-3.6868,-3.6884,-3.6961,-3.696,-3.6972,-3.7006,-3.7026,-3.705,-3.7058,-3.705,-3.7063,-3.7035,-3.708,-3.7024,-3.7087,-3.7041,-3.7057,-3.7057,-3.706,-3.7063,-3.7,-3.7099,-3.7261,-3.7278,-3.7067,-3.7065,-3.7064,0,-3.6975,-3.7015,-3.7068,-3.7074,-3.7074,-3.7099,-3.7101,-3.7105,-3.7121,-3.7139,-3.7149,-3.7172,-3.7185,-3.7205,-3.7185,-3.7146,-3.7252,-3.7194,-3.7248,-3.7249,-3.7272,-3.7271,-3.744,-3.7282,-3.7282,-3.7281,-3.7281,0,-3.7095,-3.7145,-3.7116,-3.7148,-3.7204,-3.7175,-3.7231,-3.7227,-3.7232,-3.7265,-3.7227,-3.7259,-3.7231,-3.7261,-3.7246,-3.7302,-3.7308,-3.7304,-3.7299,-3.7307,-3.7308,-3.7317,-3.731,-3.7286,-3.7285,-3.7284,-3.7283,0,-3.7223,-3.7205,-3.726,-3.7256,-3.7256,-3.7298,-3.7295,-3.7326,-3.7316,-3.7358,-3.7367,-3.7352,-3.7386,-3.7368,-3.7403,-3.7393,-3.7466,-3.7451,-3.7463,-3.7459,-3.7516,-3.7511,-3.7697,-3.7721,-3.7547,-3.7548,-3.755,0,-3.7301,-3.7339,-3.734,-3.7358,-3.7362,-3.7393,-3.7409,-3.7384,-3.7403,-3.7416,-3.7447,-3.7477,-3.75,-3.7557,-3.755,-3.7578,-3.7564,-3.7627,-3.7568,-3.7576,-3.7567,-3.7565,-3.7569,-3.7639,-3.7641,-3.7643,-3.7644,0,-3.7443,-3.7433,-3.7457,-3.748,-3.7501,-3.7518,-3.7531,-3.7549,-3.7524,-3.7548,-3.7582,-3.76,-3.7637,-3.7669,-3.7693,-3.7697,-3.7668,-3.7663,-3.7678,-3.7686,-3.7692,-3.7691,-3.7497,-3.7659,-3.7657,-3.7656,-3.7655,-3.7655,-3.7549,-3.7581,-3.7588,-3.7617,-3.7625,-3.7639,-3.7669,-3.7664,-3.7691,-3.7719,-3.7703,-3.7743,-3.7754,-3.7784,-3.7792,-3.7825,-3.78,-3.782,-3.7825,-3.7831,-3.7839,-3.7687,-3.7829,-3.7829,-3.7828,-3.7828,-3.7828,0,-3.769,-3.7692,-3.772,-3.7741,-3.7765,-3.7735,-3.775,-3.7772,-3.7808,-3.782,-3.7844,-3.7885,-3.7916,-3.7914,-3.7944,-3.7971,-3.7959,-3.798,-3.7978,-3.798,-3.7859,-3.7844,-3.7989,-3.7989,-3.7989,-3.7989,-3.7989,-3.7989,-3.7766,-3.7819,-3.7811,-3.7869,-3.7872,-3.7911,-3.7922,-3.7937,-3.7946,-3.7993,-3.8019,-3.8017,-3.8024,-3.8055,-3.8084,-3.8082,-3.8095,-3.8122,-3.8116,-3.8004,-3.7988,-3.7972,-3.7958,-3.8125,-3.8125,-3.8234,-3.8235,-3.8235]},{"header":{"parameterUnit":"m.s-1","parameterCategory":1,"la1":30.2991,"la2":30.254,"lo1":-89.0895,"lo2":-89.0444,"dy":0.0017,"dx":0.0017,"nx":28,"ny":28,"refTime":"2023-10-27T09:00:00:Z","depth":0,"parameterNumber":3,"parameterNumberName":"V-component_of_WINDS"},"data":[0,0,0,0,0,0,0,0,0,0,0,0,0,0,0,0,0,0,0,0,0,0,0,0,0,0,0,0,0,0,0,0,0,0,0,0,0,0,0,0,0,0,0,0,0,0,0,0,0,0,0,0,0,0,0,0,0,0,1.477,1.4771,0,1.4806,1.4807,1.4807,1.4908,1.491,1.4913,1.4915,1.4945,1.4944,1.4943,0,0,0,0,0,0,0,0,0,0,0,0,0,1.4783,1.4782,1.477,1.4771,1.4771,1.4806,1.4807,1.4807,1.4908,1.4911,1.4913,1.4916,1.4946,1.4944,1.4943,0,0,0,0,0,0,0,0,0,0,0,0,0,1.4794,1.4782,1.477,1.4826,1.4831,1.4806,1.4807,1.4807,1.4907,1.4911,1.4914,1.4917,1.4946,1.4944,1.4942,1.4865,0,0,1.4937,1.4936,0,0,0,0,0,0,0,0,1.4793,1.4793,1.4817,1.4822,1.4828,1.4856,1.4823,1.4826,1.4906,1.4878,1.4915,1.4919,1.4913,1.4914,1.4913,1.4866,1.4867,1.4937,1.4935,1.4935,1.4934,0,0,0,0,0,0,0,1.4792,1.4792,1.4784,1.4817,1.4824,1.4847,1.4852,1.4824,1.4876,1.4881,1.4888,1.4892,1.4916,1.4914,1.4914,1.4868,1.4937,1.4935,1.4934,1.4933,1.4759,1.4756,0,0,0,0,0,0,1.4784,1.4791,1.4783,1.4785,1.4819,1.4844,1.485,1.4844,1.4877,1.4885,1.4889,1.4896,1.4916,1.4916,1.4916,1.4827,1.4935,1.4933,1.4932,1.4763,1.4758,1.4755,0,0,0,0,0,0,1.4784,1.4783,1.4782,1.479,1.4792,1.4841,1.4832,1.4843,1.4841,1.4883,1.4892,1.4878,1.4919,1.4918,1.4877,1.4829,1.4932,1.493,1.4767,1.4761,1.4757,1.4647,0,0,0,0,0,0,1.4784,1.4782,1.4754,1.4789,1.4791,1.4743,1.483,1.4841,1.4839,1.4849,1.4875,1.4882,1.4921,1.4879,1.4875,1.4828,1.4929,1.4771,1.4764,1.4758,1.4655,1.4639,1.4625,0,0,0,0,0,1.4784,1.472,1.4752,1.4751,1.4757,1.4741,1.4742,1.4789,1.4834,1.4806,1.4833,1.4882,1.4836,1.4874,1.4871,1.4822,1.4774,1.4766,1.4759,1.4662,1.4642,1.4625,0,0,0,0,0,0,1.4676,1.4726,1.4762,1.4707,1.4719,1.4758,1.4723,1.4767,1.4764,1.4773,1.4831,1.4836,1.4786,1.4801,1.4843,1.4749,1.4813,1.4804,1.4741,1.4722,1.4708,1.4704,1.4927,0,0,0,0,0,1.4646,1.463,1.4674,1.4622,1.4626,1.4673,1.4668,1.4704,1.4718,1.4722,1.4746,1.4756,1.4744,1.4734,1.4726,1.4659,1.4665,1.4624,1.4609,1.4596,1.4587,1.4552,1.4534,1.4729,1.4729,1.4729,0,0,1.4583,1.4609,1.4594,1.4601,1.4614,1.4594,1.4677,1.4652,1.4638,1.4718,1.4681,1.4699,1.4713,1.4659,1.4636,1.4669,1.4535,1.4586,1.4576,1.4573,1.4542,1.4524,1.4507,1.4724,1.4724,1.4725,0,0,1.4458,1.4477,1.4435,1.4448,1.4468,1.4501,1.449,1.4523,1.4538,1.4503,1.4563,1.4546,1.4524,1.4532,1.4533,1.4414,1.4458,1.4409,1.4329,1.4294,1.4279,1.4266,1.4222,1.4205,1.44,1.44,1.44,0,1.4376,1.4351,1.4408,1.438,1.438,1.4456,1.4413,1.4422,1.4437,1.4435,1.4473,1.4448,1.4463,1.4411,1.4382,1.4381,1.437,1.4405,1.4277,1.4264,1.4252,1.4211,1.4195,1.4394,1.4395,1.4395,1.4396,0,1.425,1.4231,1.4195,1.4211,1.4208,1.4172,1.4222,1.4212,1.4249,1.4276,1.4239,1.426,1.4257,1.4248,1.4283,1.4201,1.4221,1.4267,1.4332,1.4227,1.4189,1.4174,1.4385,1.4387,1.4389,1.4391,0,0,1.4054,1.4104,1.4089,1.4098,1.4127,1.4113,1.4081,1.408,1.407,1.4078,1.4052,1.4033,1.4076,1.4077,1.4114,1.4084,1.3987,1.4134,1.4135,1.4104,1.3897,1.3861,1.3842,1.4018,1.4015,1.4013,1.3895,0,1.3935,1.3886,1.3936,1.3875,1.3859,1.3931,1.3903,1.3917,1.3942,1.3931,1.3959,1.3944,1.4002,1.4004,1.3978,1.4004,1.3946,1.4014,1.3992,1.399,1.3984,1.3822,1.3784,1.3671,1.3881,1.3879,1.3877,0,1.3789,1.3794,1.3732,1.3766,1.3761,1.3735,1.3739,1.3728,1.3745,1.3765,1.3768,1.3814,1.3784,1.3849,1.3808,1.3853,1.3847,1.3859,1.3856,1.3854,1.3925,1.3814,1.3637,1.3619,1.3854,1.3856,1.3858,0,1.3651,1.3642,1.3604,1.3609,1.3648,1.3628,1.3643,1.3664,1.3661,1.3664,1.3662,1.366,1.3659,1.3656,1.37,1.3744,1.3652,1.3722,1.3666,1.3665,1.3641,1.3642,1.3459,1.3641,1.3641,1.3642,1.3642,0,1.3512,1.3471,1.3543,1.3518,1.3474,1.3533,1.3487,1.3509,1.3528,1.3508,1.3571,1.355,1.3611,1.3597,1.3631,1.359,1.359,1.3604,1.3613,1.3597,1.3595,1.3592,1.36,1.3637,1.3638,1.3639,1.364,0,1.3349,1.3396,1.3359,1.34,1.341,1.3375,1.3409,1.3388,1.3419,1.3394,1.3391,1.3439,1.3426,1.347,1.3463,1.3487,1.3427,1.345,1.3421,1.3427,1.3369,1.3373,1.3176,1.3153,1.3351,1.3349,1.3348,0,1.3256,1.3226,1.3265,1.3258,1.3271,1.3258,1.3256,1.3312,1.3307,1.3325,1.3301,1.3294,1.3291,1.3267,1.3299,1.3295,1.3317,1.3248,1.3316,1.3301,1.3313,1.3314,1.331,1.3233,1.323,1.3228,1.3227,0,1.3085,1.3111,1.3106,1.311,1.3106,1.3111,1.312,1.311,1.3171,1.3162,1.315,1.3148,1.3143,1.3134,1.3137,1.3151,1.3197,1.3206,1.3193,1.3175,1.3159,1.3165,1.338,1.3209,1.3211,1.3212,1.3213,1.3214,1.2954,1.2931,1.2955,1.2948,1.2961,1.2969,1.2951,1.2981,1.2974,1.2975,1.3009,1.2991,1.3009,1.3018,1.3028,1.3013,1.3044,1.3025,1.302,1.3014,1.3003,1.3163,1.3014,1.3014,1.3015,1.3015,1.3016,0,1.2785,1.2805,1.2798,1.281,1.2804,1.2853,1.2866,1.2857,1.2841,1.2855,1.2852,1.2839,1.2831,1.2864,1.2861,1.2842,1.2864,1.2839,1.284,1.2842,1.2976,1.2987,1.2822,1.2822,1.2822,1.2822,1.2822,1.2822,1.2696,1.266,1.2688,1.2659,1.2679,1.2663,1.2666,1.2673,1.2685,1.2668,1.2663,1.2686,1.2707,1.2707,1.2701,1.2711,1.2706,1.2673,1.269,1.2814,1.2833,1.2851,1.2861,1.2672,1.2672,1.2558,1.2556,1.2556]}]]